Regional Weather Roundup
Issued by NWS Albany, NY

Current Version | Previous Version | Text Only | Print | Product List | Glossary On
Versions: 1 2 3 4 5 6 7 8 9 10 11 12 13 14 15 16 17 18 19 20 21 22 23 24 25
837
ASUS41 KALY 221210
RWRALY

NEW YORK STATE HOURLY WEATHER ROUNDUP
NATIONAL WEATHER SERVICE ALBANY NY
800 AM EDT FRI MAY 22 2015

NOTE: "FAIR" INDICATES FEW OR NO CLOUDS BELOW 12,000 FEET WITH NO
SIGNIFICANT WEATHER AND/OR NO OBSTRUCTIONS TO VISIBILITY.

NYZ032-033-038>043-046>054-057>066-NYZ062>081-221300-
EAST


CITY           SKY/WX    TMP DP  RH WIND       PRES   REMARKS
ALBANY         MOSUNNY   57  40  52 W8        29.87S
GLENS FALLS    MOSUNNY   55  43  63 S5        29.85R
POUGHKEEPSIE   SUNNY     56  45  66 SW3       29.89R
NEWBURGH       SUNNY     54  46  76 W14       29.91R
MONTGOMERY     SUNNY     56  44  64 W7        29.90R
WHITE PLAINS   SUNNY     57  44  62 NW13      29.89R
ISLIP          MOSUNNY   57  47  69 NW10      29.87R
NEW YORK CITY  MOSUNNY   59  43  55 NW14      29.91R
CENTRAL PARK   SUNNY     58  41  53 VRB5      29.94R
$$

NYZ005>009-017-018-044>046-055-056-221300-
CENTRAL


CITY           SKY/WX    TMP DP  RH WIND       PRES   REMARKS
FULTON         SUNNY     52  41  66 N5        29.93R
SYRACUSE       MOSUNNY   52  40  63 W13       29.93R
ROME           SUNNY     51  41  68 W9        29.91R
ELMIRA         MOSUNNY   51  41  68 SW7       29.96R
BINGHAMTON     MOSUNNY   48  39  71 W9        29.93R
MONTICELLO     SUNNY     48  39  71 W9        29.93S
$$

NYZ026>034-041>043-221300-
NORTH


CITY           SKY/WX    TMP DP  RH WIND       PRES   REMARKS
WATERTOWN      CLOUDY    48  35  60 N13       29.94R
FORT DRUM      NOT AVBL
MASSENA        SUNNY     49  35  58 NW12G18   29.92R
SARANAC LAKE   CLOUDY    44  39  82 VRB5      29.84R
PLATTSBURGH    PTSUNNY   53  38  56 W5        29.84R
$$

NYZ001>004-010>016-019>021-221300-
WEST


CITY           SKY/WX    TMP DP  RH WIND       PRES   REMARKS
NIAGARA FALLS  MOSUNNY   48  35  60 NW10      30.00R
BUFFALO        MOSUNNY   50  33  52 W8        30.00R
DUNKIRK        CLOUDY    50  34  54 W10       30.03R
JAMESTOWN      MOSUNNY   48  32  53 W12       30.03R
WELLSVILLE     MOSUNNY   48  37  65 W8        29.99R
ROCHESTER      MOSUNNY   51  35  54 NW12      29.99R
PENN YAN       MOSUNNY   55  37  50 W8        29.96R
$$

             KEY
       WCI = WIND CHILL INDEX
       VSB = VISIBILITY
       HX  = HEAT INDEX
$$



USA.gov is the U.S. government's official web portal to all federal, state and local government web resources and services.